Location: Carr Mill
(33.2054°N, 85.9439°W)
Time: 21:53:00
(UTC+00:00)

STARLINK-2754 - Pass Details

Date: 24 June 2021
Orbit: 546 x 548 km, 53.1° (Epoch: 04 August)

Event Time Altitude Azimuth Distance (km) Brightness Sun altitude
Exits shadow 08:08:27 73° 58° (ENE) 574 3.7 -24.0°
Drops below altitude 10° 08:12:13 10° 45° (NE) 1,819 7.3 -23.6°
Sets 08:14:27 0° 45° (NE) 2,716 8.6 -23.3°
